#timestamp,LO_Frequency,Hit 
1596452415.5,286047000.8,N
1596452435.3,286046998.2,N
1596452455.1,286046998.8,N
1596452475.9,286047000.7,N
1596452495.7,286046998.2,N
1596452515.5,286046998.9,N
1596452535.4,286046998.5,N
1596452555.2,286046999.1,N
1596452575.0,286046998.3,N
1596452575.9,286046998.3,N
1596452595.8,286046998.5,N
1596452615.6,286047001.1,N
1596452635.4,286046996.6,N
1596452655.3,286046996.6,N
1596452675.1,286046996.9,N
1596452695.8,286046998.3,N
1596452715.7,286046999.1,N
1596452735.5,286046996.6,N
1596452755.3,286046999.4,N
1596452775.2,286046999.4,N
1596452795.9,286046998.5,N
1596452815.7,286046999.3,N
1596452835.6,286046997.4,N
1596452855.4,286046997.2,N
1596452875.2,286046996.7,N
1596452895.1,286046996.7,N
1596452896.0,286046996.7,N
1596452915.8,286046997.2,N
1596452935.6,286046998.4,N
1596452955.5,286046998.4,N
1596452975.3,286046997.7,N
1596452995.1,286046996.5,P
1596453015.9,286046998.3,N
1596453035.7,286046998.6,N
1596453055.5,286046998.5,N
1596453075.4,286046998.9,N
1596453095.2,286047000.8,N
1596453115.0,286047001.2,N
1596453115.9,286047001.2,N
1596453135.8,286046998.2,N
1596453155.6,286046998.9,N
1596453175.4,286046998.3,N
1596453195.3,286046998.7,N
1596453215.1,286046998.4,N
1596453216.0,286046998.4,N
1596453235.8,286046998.8,N
1596453255.7,286046999.3,N
1596453275.5,286047000.7,N
1596453295.3,286046998.5,N
1596453315.2,286046998.1,N
1596453335.9,286046999.1,N
1596453355.7,286046999.6,N
1596453375.6,286046998.1,N
1596453395.4,286046997.0,N
1596453415.2,286046999.0,N
1596453435.1,286046997.0,N
1596453436.0,286046997.0,N
1596453455.8,286046996.5,N
1596453475.6,286046999.5,N
1596453495.5,286046999.6,N
1596453515.3,286046999.1,N
1596453535.1,286046997.0,N
1596453555.9,286046997.2,N
1596453575.7,286046997.0,N
1596453595.5,286046999.3,N
1596453615.3,286046999.2,N
1596453635.2,286046994.9,P
1596453655.0,286046999.4,N
1596453655.9,286046999.4,N
1596453675.8,286046996.8,N
1596453695.6,286046999.6,N
1596453715.4,286046996.7,N
1596453735.3,286046999.5,N
1596453755.1,286046996.9,N
1596453756.0,286046996.9,N
1596453775.8,286046996.5,N
1596453795.7,286046997.1,N
1596453815.5,286046999.2,N
1596453835.3,286046997.2,N
1596453855.1,286046996.9,N
1596453875.9,286046996.6,N
1596453895.7,286046996.5,N
1596453915.5,286046996.6,N
1596453935.4,286046999.4,N
1596453955.2,286046998.4,N
1596453975.0,286046997.0,N
1596453975.9,286046997.0,N
1596453995.8,286046996.5,N
1596454015.6,286046996.5,N
1596454035.4,286046997.1,N
1596454055.3,286046997.0,N
1596454075.1,286046996.8,N
1596454095.8,286046997.9,N
1596454115.7,286046997.1,N
1596454135.5,286046996.6,N
1596454155.3,286046996.9,N
1596454175.2,286046997.9,N
1596454195.0,286046997.5,N
1596454195.9,286046997.5,N
1596454215.8,286046995.4,P
1596454235.6,286047001.2,N
1596454255.4,286046996.6,N
1596454275.2,286047000.8,N
1596454295.1,286046998.3,N
1596454296.0,286046998.3,N
1596454315.8,286046996.6,N
1596454335.7,286046997.0,N
1596454355.5,286046997.6,N
1596454375.3,286046996.9,N
1596454395.1,286046996.8,N
1596454415.9,286046997.2,N
1596454435.7,286046996.6,N
1596454455.5,286046998.9,N
1596454475.4,286046996.7,N
1596454495.2,286046998.8,N
1596454515.0,286046998.4,N
1596454515.9,286046998.4,N
1596454535.8,286046998.4,N
1596454555.6,286047000.8,N
1596454575.4,286047000.2,N
1596454595.3,286047000.5,N
1596454615.1,286047001.7,N
1596454635.8,286047002.3,N
1596454655.7,286047001.9,N
1596454675.5,286047001.4,N
1596454695.3,286047003.2,N
1596454715.2,286047003.3,N
1596454735.9,286047003.3,N
1596454755.7,286047005.8,N
1596454775.6,286047007.0,N
1596454795.4,286047007.1,N
1596454815.2,286047007.2,N
1596454835.1,286047008.4,N
1596454836.0,286047008.4,N
1596454855.8,286047008.1,N
1596454875.6,286047010.2,N
1596454895.5,286047010.2,N
1596454915.3,286047009.6,N
1596454935.1,286047012.1,N
1596454955.9,286047011.6,N
1596454975.7,286047010.9,N
1596454995.5,286047012.7,N
1596455015.4,286047014.7,P
1596455035.2,286047009.3,N
1596455055.0,286047009.9,N
1596455055.9,286047009.9,N
1596455075.8,286047011.6,P
1596455095.6,286047001.3,N
1596455115.4,286047004.1,N
1596455135.3,286047003.9,N
1596455155.1,286047003.4,N
1596455175.8,286047005.7,N
1596455195.7,286047005.4,N
1596455215.5,286047006.7,N
1596455235.3,286047007.6,N
1596455255.2,286047004.6,N
1596455275.9,286047006.8,N
1596455295.7,286047009.2,P
1596455315.6,286047002.5,N
1596455335.4,286047004.3,N
1596455355.2,286047003.4,N
1596455375.1,286047003.4,N
1596455376.0,286047003.4,N
1596455395.8,286047003.8,N
1596455415.6,286047003.6,N
1596455435.5,286047005.9,P
1596455455.3,286047000.8,N
1596455475.1,286047001.1,N
1596455495.9,286047000.7,N
1596455515.7,286047001.0,N
1596455535.5,286047000.8,N
1596455555.4,286046998.1,N
1596455575.2,286046999.7,N
1596455595.0,286046999.8,N
1596455595.9,286046999.8,N
1596455615.8,286047000.1,N
1596455635.6,286047001.0,N
1596455655.4,286047001.2,N
1596455675.3,286047000.7,N
1596455695.1,286047000.8,N
1596455715.8,286046998.1,N
1596455735.7,286046998.9,N
1596455755.5,286046998.1,N
1596455775.3,286046999.1,N
1596455795.2,286046998.9,N
1596455815.9,286046999.6,N
1596455835.7,286046997.2,N
1596455855.6,286046996.5,N
1596455875.4,286046999.1,N
1596455895.2,286046999.2,N
1596455915.1,286046996.6,N
1596455916.0,286046996.6,N
1596455935.8,286046996.5,N
1596455955.6,286046996.8,N
1596455975.5,286046997.2,N
1596455995.3,286046997.9,N
